Probability
0 0 0 0 0 0 0 0 0 0 0 0 0 0 0 0 0 0 0 0 0 0 0 0 0 0 0 0 0 0 0 0 0 0 0 0 0 0 0 0 0 0 0 0
0 0 0 0 0 0 0 0 0 0 0 0 0 0 0 0 0 0 0 0 0 0 0 0 0 0 0 0 0 0 0 0 0 0 0 0 0 0 0 0 0 0 0 0
0 0 0 0 0 0 0 0 0 0 0 0 0 0 0 0 0 0 0 0 0 0 0 0 0 0 0 0 0 0 0 0 0 0 0 0 0 0 0 0 0 0 0 0
0 0 0 0 0 0 0 0 0 0 0 0 0 0 0 0 0 0 0 0 0 0 0 0 0 0 0 0 0 0 0 0 0 0 0 0 0 0 0 0 0 0 0 0
0 0 0 0 0 0 0 0 0 0 0 0 0 0 0 0 0 0 0 0 0 0 0 0 0 0 0 0 0 0 0 0 0 0 0 0 0 0 0 0 0 0 0 0
0 0 0 0 0 0 0 0 0 0 0 0 0 0 0 0 0 0 0 0 0 0 0 0 0 0 0 0 0 3 0 0 0 0 0 0 0 0 0 0 0 0 0 0
0 0 0 0 0 0 0 0 0 0 0 0 0 0 0 0 0 0 0 0 0 0 0 0 0 0 0 0 0 3 3 3 3 0 0 0 0 0 0 0 0 0 3 3
0 0 0 0 0 0 0 0 0 0 0 0 0 0 0 0 0 0 0 0 0 0 0 0 0 0 0 0 0 3 3 3 3 0 0 0 0 0 0 0 0 0 3 3
0 0 0 0 0 0 0 0 0 0 0 0 0 0 0 0 0 0 0 0 0 0 0 0 0 0 0 0 0 0 3 3 3 3 0 0 0 0 0 0 0 3 3 0
0 0 0 0 0 0 0 0 0 0 0 0 0 0 0 0 0 0 0 0 0 0 0 0 0 0 0 0 0 0 0 0 0 0 0 0 0 0 0 0 3 3 3 3
0 0 0 0 0 0 0 0 0 0 0 0 0 0 0 0 0 0 0 0 0 0 0 0 0 0 0 0 0 0 0 3 3 3 3 3 3 3 3 3 3 3 3 0
0 0 0 0 0 0 0 0 0 0 0 0 0 0 0 0 0 0 0 0 0 0 0 0 0 0 0 0 0 0 0 0 0 0 3 3 3 3 3 3 3 3 3 0
0 0 0 0 0 0 0 0 0 0 0 0 0 0 0 0 0 0 0 0 0 0 0 0 0 0 0 0 0 0 0 0 0 0 0 0 0 0 0 0 0 0 0 0
0 0 0 0 0 0 0 0 0 0 0 0 0 0 0 0 0 0 0 0 0 0 0 0 0 0 0 0 0 0 0 0 0 0 0 0 0 0 0 0 0 0 0 0
0 0 0 0 0 0 0 0 0 0 0 0 0 0 0 0 0 0 0 0 0 0 0 0 0 0 0 0 0 0 0 0 0 0 0 0 0 0 0 0 0 0 0 0
0 0 0 0 0 0 0 0 0 0 0 0 0 0 0 0 0 0 0 0 0 0 0 0 0 0 0 0 0 0 0 0 0 0 0 0 0 0 0 0 0 0 0 0
0 0 0 0 0 0 0 0 0 0 0 0 0 0 0 0 0 0 0 0 0 0 0 0 0 0 0 0 0 0 0 0 0 0 0 0 0 0 0 0 0 0 0 0
0 0 0 0 0 0 0 0 0 0 0 0 0 0 0 0 0 0 0 0 0 0 0 3 0 0 0 0 0 0 0 0 0 0 0 0 0 0 0 0 0 0 0 0
0 0 0 0 0 0 0 0 0 0 0 0 0 0 0 0 0 0 0 0 0 0 0 0 0 0 0 0 0 0 0 0 0 0 0 0 0 0 0 0 0 0 0 0
0 0 0 0 0 0 0 0 0 0 0 0 0 0 0 0 0 0 0 0 0 0 0 0 0 0 0 0 0 0 0 0 0 0 0 0 0 0 0 0 0 0 0 0
0 0 0 0 0 0 0 0 0 0 0 0 0 0 0 0 0 0 0 0 0 0 0 0 0 0 0 0 0 0 0 0 0 0 0 0 0 0 0 0 0 0 0 0
0 0 0 0 0 0 0 0 0 0 0 0 0 0 0 0 0 0 0 0 0 0 0 0 0 0 0 0 0 0 0 0 0 0 0 0 0 0 0 0 0 0 0 0
0 0 0 0 0 0 0 0 0 0 0 0 0 0 0 0 0 0 0 0 0 0 0 0 0 0 0 0 0 0 0 0 0 0 0 0 0 0 0 0 0 0 0 0
0 0 0 0 0 0 0 0 0 0 0 0 0 0 0 0 0 0 0 0 0 0 0 0 0 0 0 0 0 3 3 3 3 3 0 0 0 0 0 0 0 0 0 0
0 0 0 0 0 0 0 0 0 0 0 0 0 0 0 0 0 0 0 0 0 0 0 0 0 0 0 0 0 3 3 3 3 0 0 0 0 0 0 0 0 0 0 0
0 0 0 0 0 0 0 0 0 0 0 0 0 0 0 0 0 0 0 0 0 0 0 0 0 0 0 0 0 0 3 3 3 3 0 0 0 0 0 0 0 0 0 0
Height
5847 5848 5848 5848 5849 5849 5850 5851 5853 5855 5856 5858 5860 5862 5864 5866 5868 5869 5871 5873 5875 5877 5879 5881 5883 5885 5886 5888 5889 5890 5890 5891 5891 5891 5891 5891 5891 5890 5890 5888 5888 5887 5885 5884
5848 5848 5848 5848 5848 5848 5849 5851 5852 5854 5855 5857 5859 5861 5862 5864 5866 5868 5870 5872 5874 5876 5878 5880 5882 5884 5885 5886 5888 5888 5889 5890 5890 5890 5890 5890 5890 5890 5889 5888 5887 5886 5885 5884
5848 5849 5848 5848 5848 5848 5849 5850 5852 5853 5855 5856 5858 5860 5861 5863 5865 5866 5868 5870 5872 5875 5877 5879 5881 5883 5884 5885 5886 5887 5888 5889 5889 5889 5889 5890 5890 5889 5889 5888 5887 5886 5885 5884
5848 5848 5848 5848 5848 5849 5849 5850 5852 5853 5854 5856 5858 5860 5861 5862 5863 5865 5866 5868 5871 5873 5875 5877 5880 5881 5883 5884 5885 5886 5887 5888 5888 5888 5889 5889 5889 5888 5888 5887 5886 5886 5885 5884
5848 5848 5848 5849 5849 5849 5850 5851 5852 5853 5854 5856 5857 5859 5860 5861 5862 5864 5865 5867 5869 5872 5874 5876 5878 5880 5881 5883 5884 5885 5886 5886 5887 5887 5888 5888 5888 5887 5887 5886 5886 5885 5884 5883
5848 5848 5849 5849 5849 5850 5850 5851 5852 5853 5854 5856 5857 5858 5860 5860 5861 5863 5864 5866 5868 5871 5873 5875 5876 5878 5880 5881 5882 5884 5884 5885 5886 5886 5886 5886 5886 5886 5886 5886 5885 5884 5884 5883
5848 5849 5849 5849 5849 5850 5851 5852 5854 5854 5855 5856 5857 5858 5859 5859 5860 5862 5863 5865 5867 5870 5871 5873 5875 5877 5878 5880 5881 5882 5883 5883 5884 5884 5884 5884 5885 5884 5885 5884 5884 5883 5883 5882
5848 5849 5849 5849 5850 5850 5850 5852 5854 5855 5855 5856 5856 5857 5859 5859 5859 5861 5862 5864 5866 5868 5870 5872 5873 5875 5876 5878 5879 5880 5881 5881 5882 5882 5882 5882 5883 5883 5883 5883 5883 5882 5882 5881
5847 5848 5848 5848 5849 5850 5850 5851 5852 5854 5854 5855 5856 5856 5857 5858 5859 5860 5861 5863 5865 5866 5868 5870 5872 5873 5874 5876 5877 5877 5878 5879 5880 5880 5880 5880 5880 5881 5881 5881 5881 5880 5880 5880
5846 5847 5847 5847 5848 5849 5850 5851 5852 5853 5854 5855 5856 5856 5857 5857 5858 5859 5860 5862 5864 5865 5867 5868 5869 5871 5872 5873 5874 5875 5876 5877 5877 5877 5878 5878 5878 5878 5879 5879 5879 5878 5878 5878
5845 5846 5847 5847 5847 5848 5849 5850 5851 5852 5853 5855 5855 5858 5856 5856 5857 5858 5859 5861 5862 5863 5865 5866 5867 5869 5870 5871 5872 5873 5873 5874 5875 5875 5875 5876 5876 5876 5876 5876 5876 5876 5876 5875
5843 5845 5845 5846 5846 5847 5847 5848 5850 5851 5852 5853 5854 5858 5855 5855 5856 5857 5858 5859 5860 5862 5863 5864 5865 5867 5868 5868 5869 5870 5871 5872 5872 5873 5873 5873 5874 5874 5874 5874 5873 5873 5873 5872
5842 5843 5844 5845 5847 5846 5846 5847 5848 5849 5850 5851 5853 5856 5854 5854 5855 5856 5857 5858 5859 5860 5861 5862 5863 5864 5865 5866 5867 5868 5868 5869 5870 5870 5871 5871 5871 5871 5871 5871 5871 5870 5870 5869
5840 5841 5843 5844 5844 5844 5844 5845 5846 5848 5849 5850 5851 5852 5852 5853 5853 5854 5855 5856 5857 5858 5859 5860 5861 5862 5863 5864 5865 5865 5866 5867 5867 5868 5868 5868 5868 5868 5868 5868 5868 5867 5866 5866
5837 5839 5840 5841 5841 5842 5842 5843 5844 5845 5846 5848 5849 5850 5850 5851 5852 5852 5853 5854 5855 5856 5857 5858 5859 5860 5861 5861 5862 5863 5863 5864 5864 5865 5865 5865 5865 5865 5865 5864 5864 5863 5863 5862
5834 5836 5837 5838 5839 5839 5840 5841 5842 5843 5844 5845 5846 5848 5848 5849 5850 5850 5851 5852 5853 5854 5854 5855 5856 5857 5858 5859 5859 5860 5860 5861 5861 5861 5861 5861 5861 5861 5861 5861 5860 5860 5859 5858
5831 5833 5835 5836 5836 5837 5838 5839 5840 5841 5842 5843 5844 5846 5846 5847 5847 5848 5849 5850 5850 5851 5852 5852 5853 5853 5854 5855 5856 5857 5857 5857 5857 5858 5858 5857 5857 5857 5857 5857 5856 5855 5855 5854
5828 5830 5831 5833 5834 5835 5838 5837 5837 5838 5839 5840 5841 5842 5843 5844 5845 5845 5846 5847 5847 5848 5848 5849 5850 5850 5851 5852 5853 5853 5853 5854 5854 5854 5854 5854 5853 5853 5853 5852 5852 5851 5850 5849
5824 5826 5827 5829 5830 5832 5834 5834 5834 5835 5837 5837 5838 5839 5840 5841 5842 5843 5843 5843 5844 5845 5845 5846 5846 5847 5847 5848 5848 5849 5849 5849 5849 5849 5849 5849 5849 5849 5848 5848 5847 5846 5846 5845
5819 5821 5824 5825 5826 5829 5831 5831 5831 5833 5833 5834 5835 5836 5837 5838 5839 5840 5840 5840 5840 5841 5841 5842 5842 5843 5843 5844 5844 5844 5845 5845 5845 5845 5844 5844 5844 5844 5843 5843 5842 5842 5841 5840
5814 5816 5818 5820 5821 5824 5826 5826 5828 5831 5831 5831 5831 5832 5833 5834 5835 5835 5835 5836 5837 5837 5838 5838 5838 5839 5839 5839 5840 5840 5840 5840 5840 5840 5840 5839 5839 5838 5838 5837 5837 5837 5836 5835
5809 5811 5813 5814 5817 5821 5821 5822 5824 5826 5826 5826 5827 5828 5829 5829 5830 5831 5831 5832 5832 5833 5833 5834 5834 5835 5835 5835 5835 5835 5835 5835 5835 5835 5835 5834 5834 5833 5833 5832 5831 5831 5830 5829
5803 5806 5807 5810 5814 5814 5815 5817 5818 5819 5821 5821 5822 5823 5824 5825 5825 5826 5827 5827 5828 5828 5829 5829 5830 5830 5830 5830 5830 5830 5830 5830 5830 5830 5829 5829 5828 5827 5827 5826 5825 5825 5824 5823
5796 5799 5801 5803 5806 5808 5809 5811 5812 5814 5815 5816 5817 5818 5819 5820 5820 5821 5821 5822 5823 5823 5824 5824 5824 5825 5825 5825 5825 5825 5825 5825 5824 5824 5824 5823 5822 5821 5820 5819 5819 5818 5817 5816
5790 5792 5794 5797 5799 5801 5803 5804 5806 5808 5809 5810 5811 5812 5813 5814 5815 5815 5816 5816 5817 5817 5818 5818 5819 5819 5819 5819 5819 5819 5819 5818 5818 5818 5817 5816 5815 5815 5814 5813 5812 5811 5810 5808
5782 5785 5788 5790 5793 5794 5796 5798 5800 5801 5802 5804 5805 5806 5807 5808 5809 5809 5810 5810 5811 5812 5812 5812 5813 5813 5813 5813 5813 5812 5812 5812 5811 5811 5810 5809 5808 5807 5807 5805 5804 5803 5802 5800
Wind_Speed
2 2 4 5 5 7 7 8 10 11 11 12 12 12 12 13 13 13 13 13 12 12 12 12 11 10 10 9 8 7 6 6 5 4 3 2 1 1 2 2 3 3 4 4
1 1 2 2 3 5 6 7 8 10 10 10 10 11 12 13 13 13 14 13 13 12 12 11 11 10 10 9 8 7 7 6 5 4 4 3 2 2 2 2 2 2 3 4
1 2 1 0 2 4 5 7 8 7 8 9 9 10 11 12 13 13 14 14 13 13 12 11 12 11 10 9 8 8 7 7 6 5 5 4 3 3 3 2 2 2 2 3
0 1 1 1 1 4 5 5 6 6 7 8 8 9 10 11 12 12 14 13 13 14 13 12 12 11 11 10 9 8 7 7 6 6 6 5 4 4 3 3 2 2 2 3
1 1 2 1 1 3 5 5 5 5 6 7 8 8 9 9 9 10 12 12 13 14 13 13 12 11 11 10 9 8 8 7 7 7 6 5 5 4 4 4 3 3 2 3
1 2 2 2 2 3 4 5 5 5 5 6 7 8 8 9 9 10 11 12 12 13 13 13 12 11 11 11 10 9 9 8 8 7 7 6 6 5 5 4 3 3 3 3
1 1 2 3 2 3 4 5 5 4 5 5 6 8 8 9 9 9 10 12 11 12 12 12 12 11 11 11 11 10 10 9 9 8 8 7 7 6 6 5 4 4 4 3
1 1 2 3 3 3 4 5 5 5 4 4 5 6 7 8 8 8 9 10 11 10 11 11 11 12 12 11 11 11 11 10 10 9 9 9 8 8 7 6 6 5 4 4
3 3 3 3 3 4 4 5 5 5 4 4 5 5 5 6 7 7 8 9 10 10 11 11 11 12 12 12 11 11 11 11 11 11 11 10 10 8 8 7 7 6 6 6
5 4 4 4 4 4 5 5 5 5 5 4 5 6 6 6 7 8 9 9 10 11 11 11 12 12 12 12 11 11 11 11 12 12 11 10 10 9 9 8 8 7 7 7
5 5 5 4 6 6 5 5 5 5 6 5 5 6 6 6 6 7 9 10 10 10 11 11 12 11 11 11 11 11 11 11 11 12 11 10 10 10 9 9 9 9 8 8
6 6 6 5 6 6 6 6 6 6 6 6 5 6 6 6 6 7 7 8 9 10 10 11 12 11 11 11 11 11 11 10 10 10 10 10 10 9 10 9 10 10 10 10
7 6 6 6 6 6 7 6 7 7 7 6 6 6 6 6 6 6 7 8 8 9 9 10 11 11 11 11 11 10 10 10 10 10 11 11 11 10 10 10 10 10 11 11
8 8 7 7 7 7 7 8 7 7 8 7 7 7 7 7 7 7 8 8 8 8 9 10 11 12 12 11 11 11 10 11 11 11 11 11 11 11 11 11 11 11 12 12
9 9 8 8 8 8 9 8 9 8 8 9 8 8 8 9 8 8 9 9 8 8 9 11 11 12 12 11 11 11 11 11 11 12 12 13 12 12 13 13 13 13 13 13
11 10 10 9 9 9 9 9 10 9 9 9 9 9 9 10 9 9 9 9 9 9 9 10 11 13 13 12 12 12 12 12 13 14 14 13 13 13 13 13 14 14 14 14
13 12 11 11 11 10 9 10 10 10 10 10 10 10 9 9 10 10 10 10 10 11 11 11 12 12 13 13 13 13 13 14 14 14 14 14 14 13 14 14 15 15 15 15
15 14 14 13 12 12 10 11 11 11 10 11 11 11 11 10 10 11 11 11 11 11 12 13 13 13 14 15 15 15 14 14 15 15 15 15 15 15 15 15 16 16 16 16
17 16 15 15 15 13 12 12 12 12 11 12 12 12 11 11 11 11 11 12 12 12 12 13 13 14 14 15 16 16 15 15 16 16 16 16 16 16 16 17 17 17 17 17
19 18 18 17 16 15 13 13 14 13 13 13 14 14 13 12 12 12 12 12 12 13 13 13 13 13 14 15 17 17 17 17 17 17 17 17 17 18 18 18 18 18 18 17
21 21 20 19 18 17 15 15 15 14 13 14 15 15 14 14 14 14 14 13 13 13 14 14 14 14 14 14 15 16 17 17 18 18 18 18 18 18 19 20 19 19 19 19
23 22 22 21 20 18 16 16 16 15 16 16 16 16 15 16 16 16 16 15 14 14 15 15 15 15 16 16 16 17 17 17 17 17 18 18 19 20 20 21 21 20 20 21
24 23 23 22 21 19 18 18 18 18 18 18 17 17 17 17 18 18 17 17 16 16 16 16 17 17 17 18 18 18 18 18 18 18 19 19 20 20 20 20 20 21 22 23
25 25 25 24 22 21 20 20 19 19 19 20 19 19 19 19 19 19 19 18 18 18 18 18 18 18 18 18 18 19 18 18 19 19 20 21 21 21 21 21 22 23 23 24
27 26 26 25 23 23 22 22 22 21 21 21 21 21 21 21 20 20 20 20 20 20 19 19 19 19 19 19 19 19 19 20 20 21 21 22 22 22 22 23 24 24 25 26
27 27 26 26 25 25 24 24 24 23 23 22 22 22 22 22 22 21 21 21 21 21 21 21 20 20 20 20 21 21 21 21 22 22 23 23 24 24 25 25 26 26 27 28
Wind_Direction
220 220 238 241 227 211 209 207 209 207 207 208 212 217 218 215 216 218 217 216 215 214 207 208 207 207 208 206 206 208 211 213 216 219 226 229 253 302 333 357 6 20 27 28
258 243 238 239 214 198 194 195 197 202 199 202 207 214 217 216 215 217 215 214 213 207 203 204 205 204 204 204 207 207 212 219 225 229 231 227 245 279 308 332 348 7 21 27
264 245 243 174 146 174 183 188 185 190 193 201 208 215 216 217 219 221 217 215 211 206 203 204 204 207 207 208 211 213 216 222 231 234 231 230 246 267 285 297 314 331 354 15
261 228 208 157 128 173 183 187 187 193 197 201 206 210 211 215 219 220 216 213 211 208 205 208 208 211 210 213 214 217 221 229 234 237 234 236 247 254 266 281 290 303 328 348
179 155 141 150 152 181 183 186 184 193 192 198 204 207 215 217 218 216 212 209 209 206 206 209 210 213 216 218 218 221 228 232 235 242 237 238 246 252 261 271 275 283 303 320
201 170 166 170 166 178 183 189 199 199 198 201 206 211 215 217 219 218 216 206 201 203 210 213 214 217 221 222 224 229 231 235 239 246 241 240 245 250 255 263 267 277 291 300
224 189 185 187 187 190 189 193 191 190 193 204 209 216 217 217 217 214 215 209 205 207 213 216 217 219 225 228 231 236 239 240 242 246 243 242 245 249 251 256 262 270 282 291
238 231 212 200 203 214 212 203 196 195 196 205 215 215 213 211 213 209 207 204 208 212 216 216 221 224 227 231 235 240 243 242 243 245 244 245 246 247 250 257 259 263 269 278
237 243 235 223 215 215 215 211 208 197 196 210 222 219 215 218 213 212 210 207 211 216 218 222 227 229 230 234 238 240 241 241 243 245 245 248 247 247 250 257 257 260 261 268
236 238 237 232 220 216 220 215 209 194 192 205 214 212 216 220 217 215 212 213 214 219 223 225 226 230 232 233 239 241 242 243 245 246 246 248 248 248 252 256 260 264 266 268
230 229 235 230 223 226 222 215 211 207 205 199 205 218 223 221 220 220 219 217 217 220 222 223 226 230 232 234 236 241 244 245 244 245 246 249 251 253 255 258 260 263 266 268
231 228 232 240 238 235 226 222 211 208 210 209 213 226 226 221 224 221 219 219 219 222 225 226 227 232 238 240 238 244 247 245 247 245 246 247 249 254 258 261 263 264 266 269
232 229 232 240 242 237 233 227 219 217 219 218 222 232 228 227 230 231 231 227 224 225 225 228 229 233 238 241 242 245 245 247 247 246 246 247 249 252 257 262 265 266 268 270
230 226 227 233 240 240 240 236 227 223 225 229 233 234 238 234 234 235 238 234 231 230 228 231 236 238 240 242 244 244 246 250 251 249 250 251 252 254 257 261 266 269 271 272
231 229 229 233 236 236 238 234 228 225 226 227 231 236 239 240 239 238 237 234 237 236 236 236 240 243 243 243 244 246 249 253 255 256 258 255 255 257 260 263 266 269 272 272
232 233 233 236 239 237 235 233 227 227 227 229 230 237 243 243 243 243 244 242 245 244 243 242 245 245 244 244 246 250 252 256 259 262 262 258 260 262 264 266 266 270 273 272
234 234 234 239 243 242 233 235 234 233 232 233 236 241 245 246 247 250 251 249 250 250 249 249 251 247 243 243 248 254 256 260 263 265 263 261 261 264 266 267 269 273 275 274
236 236 237 238 241 241 239 240 241 239 238 240 239 241 245 248 251 253 254 252 253 254 254 253 254 254 250 249 251 255 259 261 264 266 266 266 264 266 269 270 270 272 275 274
236 238 240 240 241 242 242 242 242 241 241 242 243 246 248 249 254 257 258 257 256 256 257 256 257 257 256 255 255 258 261 264 267 269 269 268 267 269 271 273 273 273 273 274
238 240 242 242 243 243 241 241 243 244 242 241 245 249 252 255 259 261 261 261 260 259 257 256 257 257 258 260 259 260 263 265 269 271 270 269 270 271 272 273 274 275 274 273
239 242 243 244 246 246 243 244 246 248 246 243 246 250 253 258 259 261 262 261 262 262 260 260 260 259 261 265 264 263 264 267 270 271 271 271 272 273 273 274 274 274 274 273
240 243 244 246 248 247 247 246 247 248 249 249 249 251 254 257 259 261 263 262 262 261 261 261 262 264 265 266 265 265 266 268 270 272 273 274 274 275 275 275 275 275 275 275
239 242 244 246 248 247 247 248 249 249 250 251 251 253 256 258 260 261 263 263 263 263 264 263 263 265 267 267 266 266 268 268 268 270 272 273 277 276 275 275 276 277 277 277
240 241 243 245 246 247 246 247 249 250 252 253 254 255 258 260 262 263 264 264 264 265 265 265 265 265 267 268 268 268 269 269 270 272 273 274 276 277 276 277 279 281 281 279
241 243 244 246 247 249 248 248 249 251 253 255 256 257 258 259 261 263 264 263 263 264 265 265 266 267 267 268 270 271 271 272 275 277 277 277 278 278 280 282 283 283 283 284
242 243 243 245 246 248 249 250 251 252 253 255 257 258 258 259 260 262 263 263 263 263 264 266 267 268 268 270 272 273 273 274 276 278 279 279 279 280 281 282 283 283 283 284